• Em Portugal
  • Lista de países
  • Para 7 dias
  • Temperatura da água
  • Mapas de satélite
  • Mapa do tempo
  • Widgets de tempo
  • user-avatar
    Iniciar Sessão

    Previsão horária em Lubla

    Hoje, 21 Abril, Sábado

    Tempo Temperatura Precipitação Vento Pressão Humidade
    00:00 +10°C° 0 mm 2 m/s 744 mmHg 68%
    01:00 +10°C° 0 mm 1 m/s 743 mmHg 67%
    02:00 +9°C° 0 mm 2 m/s 743 mmHg 67%
    03:00 +9°C° 0 mm 2 m/s 742 mmHg 66%
    04:00 +9°C° 0 mm 2 m/s 742 mmHg 65%
    05:00 +11°C° 0 mm 3 m/s 742 mmHg 62%
    06:00 +12°C° 0 mm 3 m/s 742 mmHg 59%
    07:00 +14°C° 0 mm 4 m/s 741 mmHg 54%
    08:00 +18°C° 0 mm 4 m/s 741 mmHg 51%
    09:00 +20°C° 0 mm 4 m/s 741 mmHg 47%
    10:00 +22°C° 0 mm 5 m/s 741 mmHg 44%
    11:00 +23°C° 0 mm 5 m/s 740 mmHg 43%
    12:00 +25°C° 0 mm 5 m/s 740 mmHg 42%
    13:00 +26°C° 0 mm 5 m/s 740 mmHg 41%
    14:00 +26°C° 0 mm 5 m/s 740 mmHg 43%
    15:00 +26°C° 0 mm 4 m/s 739 mmHg 46%
    16:00 +25°C° 0 mm 4 m/s 739 mmHg 49%
    17:00 +22°C° 0,1 mm 3 m/s 739 mmHg 55%
    18:00 +20°C° 0,1 mm 3 m/s 739 mmHg 62%
    19:00 +18°C° 0,1 mm 2 m/s 739 mmHg 69%
    20:00 +17°C° 0 mm 2 m/s 739 mmHg 72%
    21:00 +16°C° 0 mm 2 m/s 739 mmHg 74%
    22:00 +16°C° 0 mm 1 m/s 740 mmHg 77%
    23:00 +15°C° 0 mm 1 m/s 740 mmHg 78%

    Amanhã, 22 Abril, Domingo

    Tempo Temperatura Precipitação Vento Pressão Humidade
    00:00 +15°C° 0 mm 1 m/s 740 mmHg 79%
    01:00 +14°C° 0 mm 1 m/s 740 mmHg 80%
    02:00 +13°C° 0 mm 1 m/s 740 mmHg 82%
    03:00 +12°C° 0 mm 1 m/s 740 mmHg 84%
    04:00 +11°C° 0 mm 1 m/s 740 mmHg 86%
    05:00 +12°C° 0 mm 1 m/s 740 mmHg 80%
    06:00 +13°C° 0 mm 1 m/s 740 mmHg 74%
    07:00 +14°C° 0 mm 1 m/s 740 mmHg 68%
    08:00 +15°C° 0 mm 2 m/s 740 mmHg 60%
    09:00 +17°C° 0 mm 2 m/s 740 mmHg 53%
    10:00 +18°C° 0 mm 3 m/s 740 mmHg 46%
    11:00 +19°C° 0 mm 3 m/s 740 mmHg 43%
    12:00 +19°C° 0 mm 3 m/s 740 mmHg 41%
    13:00 +20°C° 0 mm 4 m/s 740 mmHg 39%
    14:00 +20°C° 0 mm 3 m/s 739 mmHg 40%
    15:00 +20°C° 0 mm 3 m/s 739 mmHg 40%
    16:00 +20°C° 0 mm 3 m/s 739 mmHg 41%
    17:00 +17°C° 0 mm 2 m/s 739 mmHg 47%
    18:00 +15°C° 0 mm 2 m/s 739 mmHg 52%
    19:00 +13°C° 0 mm 1 m/s 739 mmHg 58%
    20:00 +12°C° 0 mm 1 m/s 739 mmHg 60%
    21:00 +11°C° 0 mm 0 m/s 739 mmHg 62%
    22:00 +10°C° 0 mm 0 m/s 739 mmHg 64%
    23:00 +9°C° 0 mm 0 m/s 739 mmHg 65%

    Depois de amanhã, 23 Abril, Segunda-feira

    Tempo Temperatura Precipitação Vento Pressão Humidade
    00:00 +9°C° 0 mm 0 m/s 739 mmHg 67%
    01:00 +8°C° 0 mm 0 m/s 739 mmHg 68%
    02:00 +8°C° 0 mm 0 m/s 739 mmHg 69%
    03:00 +8°C° 0 mm 0 m/s 739 mmHg 70%
    04:00 +8°C° 0 mm 0 m/s 739 mmHg 71%
    05:00 +9°C° 0 mm 0 m/s 739 mmHg 66%
    06:00 +11°C° 0 mm 0 m/s 739 mmHg 61%
    07:00 +14°C° 0 mm 1 m/s 739 mmHg 57%
    08:00 +16°C° 0 mm 1 m/s 739 mmHg 52%
    09:00 +19°C° 0 mm 1 m/s 739 mmHg 48%
    10:00 +22°C° 0 mm 1 m/s 739 mmHg 43%
    11:00 +23°C° 0 mm 1 m/s 738 mmHg 42%
    12:00 +24°C° 0 mm 1 m/s 738 mmHg 40%
    13:00 +25°C° 0 mm 1 m/s 738 mmHg 39%
    14:00 +25°C° 0 mm 1 m/s 737 mmHg 42%
    15:00 +24°C° 0 mm 1 m/s 737 mmHg 45%
    16:00 +24°C° 0 mm 1 m/s 736 mmHg 48%
    17:00 +21°C° 0,9 mm 2 m/s 736 mmHg 59%
    18:00 +19°C° 0,9 mm 3 m/s 736 mmHg 71%
    19:00 +17°C° 0,9 mm 3 m/s 736 mmHg 82%
    20:00 +17°C° 0,8 mm 3 m/s 736 mmHg 85%
    21:00 +16°C° 0,8 mm 3 m/s 736 mmHg 88%
    22:00 +16°C° 0,8 mm 3 m/s 736 mmHg 92%
    23:00 +16°C° 0,2 mm 3 m/s 736 mmHg 92%

    24 Abril, Terça-feira

    Tempo Temperatura Precipitação Vento Pressão Humidade
    00:00 +14°C° 0,2 mm 3 m/s 736 mmHg 93%
    01:00 +14°C° 0,2 mm 3 m/s 736 mmHg 93%
    02:00 +14°C° 0,1 mm 4 m/s 737 mmHg 93%
    03:00 +13°C° 0,1 mm 4 m/s 737 mmHg 94%
    04:00 +13°C° 0,1 mm 4 m/s 738 mmHg 94%
    05:00 +13°C° 0,1 mm 4 m/s 738 mmHg 90%
    06:00 +13°C° 0,1 mm 4 m/s 739 mmHg 86%
    07:00 +13°C° 0,1 mm 4 m/s 739 mmHg 81%
    08:00 +14°C° 0 mm 4 m/s 739 mmHg 75%
    09:00 +15°C° 0 mm 4 m/s 740 mmHg 69%
    10:00 +17°C° 0 mm 4 m/s 740 mmHg 62%
    11:00 +18°C° 0 mm 4 m/s 740 mmHg 59%
    12:00 +19°C° 0 mm 4 m/s 739 mmHg 56%
    13:00 +19°C° 0 mm 4 m/s 739 mmHg 53%
    14:00 +19°C° 0 mm 4 m/s 739 mmHg 52%
    15:00 +19°C° 0 mm 4 m/s 739 mmHg 51%
    16:00 +20°C° 0 mm 4 m/s 739 mmHg 50%
    17:00 +18°C° 0 mm 3 m/s 739 mmHg 56%
    18:00 +16°C° 0 mm 2 m/s 739 mmHg 63%
    19:00 +13°C° 0 mm 0 m/s 738 mmHg 69%
    20:00 +14°C° 0 mm 1 m/s 739 mmHg 69%
    21:00 +13°C° 0 mm 2 m/s 739 mmHg 70%
    22:00 +13°C° 0 mm 2 m/s 739 mmHg 70%
    23:00 +13°C° 0 mm 2 m/s 739 mmHg 71%

    25 Abril, Quarta-feira

    Tempo Temperatura Precipitação Vento Pressão Humidade
    00:00 +13°C° 0 mm 2 m/s 739 mmHg 71%
    01:00 +13°C° 0 mm 2 m/s 739 mmHg 72%
    02:00 +12°C° 0 mm 2 m/s 738 mmHg 75%
    03:00 +12°C° 0 mm 2 m/s 738 mmHg 78%
    04:00 +12°C° 0 mm 2 m/s 738 mmHg 80%
    05:00 +13°C° 0 mm 2 m/s 739 mmHg 77%
    06:00 +15°C° 0 mm 2 m/s 739 mmHg 74%
    07:00 +16°C° 0 mm 2 m/s 739 mmHg 71%
    08:00 +18°C° 0 mm 2 m/s 739 mmHg 65%
    09:00 +20°C° 0 mm 3 m/s 739 mmHg 59%
    10:00 +21°C° 0 mm 3 m/s 739 mmHg 53%
    11:00 +22°C° 0 mm 3 m/s 739 mmHg 52%
    12:00 +22°C° 0 mm 3 m/s 739 mmHg 51%
    13:00 +24°C° 0 mm 3 m/s 738 mmHg 50%
    14:00 +24°C° 0,1 mm 3 m/s 738 mmHg 50%
    15:00 +24°C° 0,1 mm 2 m/s 737 mmHg 50%
    16:00 +24°C° 0,1 mm 2 m/s 737 mmHg 49%
    17:00 +21°C° 0 mm 2 m/s 737 mmHg 55%
    18:00 +20°C° 0 mm 1 m/s 736 mmHg 62%
    19:00 +18°C° 0 mm 1 m/s 736 mmHg 68%
    20:00 +18°C° 0 mm 1 m/s 736 mmHg 70%
    21:00 +16°C° 0 mm 2 m/s 736 mmHg 72%
    22:00 +16°C° 0 mm 3 m/s 736 mmHg 75%
    23:00 +16°C° 0 mm 3 m/s 736 mmHg 76%

    26 Abril, Quinta-feira

    Tempo Temperatura Precipitação Vento Pressão Humidade
    00:00 +16°C° 0 mm 3 m/s 736 mmHg 77%
    01:00 +15°C° 0 mm 4 m/s 735 mmHg 78%
    02:00 +15°C° 0 mm 4 m/s 735 mmHg 77%
    03:00 +15°C° 0 mm 4 m/s 735 mmHg 77%
    04:00 +17°C° 0 mm 4 m/s 735 mmHg 76%
    05:00 +16°C° 0 mm 5 m/s 735 mmHg 74%
    06:00 +17°C° 0 mm 5 m/s 735 mmHg 72%
    07:00 +19°C° 0 mm 5 m/s 735 mmHg 71%
    08:00 +20°C° 0,2 mm 5 m/s 735 mmHg 68%
    09:00 +21°C° 0,2 mm 4 m/s 735 mmHg 65%
    10:00 +23°C° 0,2 mm 4 m/s 735 mmHg 62%
    11:00 +22°C° 1 mm 4 m/s 735 mmHg 65%
    12:00 +22°C° 1 mm 4 m/s 735 mmHg 68%
    13:00 +22°C° 1 mm 3 m/s 735 mmHg 71%
    14:00 +21°C° 1,1 mm 3 m/s 734 mmHg 73%
    15:00 +21°C° 1,1 mm 3 m/s 734 mmHg 75%
    16:00 +20°C° 1,1 mm 2 m/s 734 mmHg 77%
    17:00 +19°C° 0,8 mm 2 m/s 734 mmHg 82%
    18:00 +18°C° 0,8 mm 2 m/s 733 mmHg 86%
    19:00 +16°C° 0,8 mm 2 m/s 733 mmHg 90%
    20:00 +16°C° 1,2 mm 2 m/s 733 mmHg 92%
    21:00 +16°C° 1,2 mm 2 m/s 733 mmHg 94%
    22:00 +14°C° 1,2 mm 3 m/s 733 mmHg 95%
    23:00 +14°C° 2,2 mm 4 m/s 733 mmHg 95%
    Mostrar mais